[Date Prev][Date Next][Thread Prev][Thread Next] - [Date Index][Thread Index][Author Index]
2 Line ISS Keps 2-7
- Subject: [sarex] 2 Line ISS Keps 2-7
- From: "Dave Larsen PhD" <doc@xxxxxxxxxxx>
- Date: Mon, 7 Feb 2005 03:36:54 -0800
ISS
1 25544U 98067A 05038.30827535 .00009964 00000-0 83655-4 0 7615
2 25544 51.6442 205.0566 0009614 74.3125 0.8348 15.70604528355262
----
Via the sarex mailing list at AMSAT.ORG courtesy of AMSAT-NA.
To unsubscribe, send "unsubscribe sarex" to Majordomo@amsat.org
AMSAT Home